Temperature
17 16 17 16 16 16 16 16 16 16 16 16 16 15 15 15 16 16 16 16 16 16 15 15 15 15 15 16 16 16 16 16 15 15 15 15 15 14 14 14 13 13 14
18 17 17 16 16 16 16 16 16 16 16 16 16 16 16 16 16 16 16 16 16 16 15 15 15 15 15 15 15 15 15 15 15 15 15 14 14 14 14 14 14 14 14
18 17 17 16 16 16 16 16 16 16 16 16 16 16 16 16 16 16 16 16 16 16 16 16 15 15 15 15 15 15 15 15 15 15 14 13 14 14 14 14 14 14 14
18 16 16 16 16 16 16 16 16 16 17 16 16 16 16 16 16 16 16 16 16 16 16 16 16 16 15 15 15 15 15 15 15 14 13 13 13 14 14 14 14 14 14
17 16 16 16 16 16 16 16 17 17 17 17 16 16 16 16 16 16 16 17 17 17 16 16 16 16 15 15 15 15 15 15 15 14 14 14 14 14 14 14 14 14 14
17 16 16 16 16 16 16 17 17 17 17 17 17 16 16 16 16 16 16 17 17 17 16 16 16 16 15 15 15 15 15 15 14 14 13 13 14 14 14 14 14 14 14
16 16 16 16 16 16 17 17 17 17 17 17 17 16 16 16 16 16 16 17 17 17 16 16 16 16 16 15 15 15 15 15 14 13 13 13 14 14 14 14 14 14 14
16 16 16 16 16 16 17 17 17 18 18 17 17 16 16 16 16 16 16 16 17 17 16 16 16 16 16 15 15 15 15 15 14 13 13 13 14 14 14 14 14 14 14
15 15 15 15 15 16 16 17 17 18 18 17 17 16 16 16 16 16 16 16 16 16 16 16 16 16 16 15 15 15 15 15 13 13 13 13 14 14 14 14 14 14 14
15 15 15 15 15 15 16 16 17 17 17 17 17 17 17 16 16 16 16 16 16 16 16 16 16 16 16 16 15 15 15 14 13 13 13 13 14 13 13 14 14 14 14
15 15 15 15 15 15 15 16 16 17 17 17 17 17 17 16 16 16 16 16 16 16 16 16 16 16 15 15 15 15 15 13 13 13 13 13 14 13 13 13 13 13 14
15 15 15 15 15 15 15 15 15 16 17 16 16 17 16 16 16 16 16 16 16 16 16 16 16 15 15 14 15 15 14 14 13 13 13 14 14 13 13 13 13 13 13
15 15 15 15 15 15 15 15 15 15 16 16 16 16 16 16 16 16 16 16 16 16 15 15 15 15 14 14 14 14 14 14 13 13 13 14 14 13 13 13 13 13 13
15 15 15 15 15 14 14 14 15 15 15 16 16 16 16 15 16 15 15 15 15 15 15 15 14 14 14 14 14 14 14 14 13 13 13 14 14 13 13 13 13 13 13
15 15 15 15 15 14 14 14 14 15 15 15 16 16 16 15 15 15 15 15 15 15 14 14 14 13 14 13 14 14 13 13 13 13 13 14 13 13 13 13 12 12 12
15 15 14 15 15 14 14 14 14 14 15 15 15 15 15 15 15 15 15 15 14 14 14 14 13 13 13 13 13 13 13 13 13 13 13 13 13 13 13 12 12 12 12
15 15 15 15 15 14 14 14 14 14 14 14 14 14 15 14 15 14 14 14 14 14 14 14 13 13 13 13 13 13 13 13 13 12 12 13 12 13 13 12 12 12 12
15 15 15 15 15 15 14 14 14 14 14 14 14 14 14 14 14 14 14 14 14 13 13 13 13 13 13 13 13 13 13 13 13 12 12 12 12 12 12 12 12 12 12
16 15 15 15 15 15 14 14 14 14 14 14 14 14 14 14 14 14 14 14 13 13 13 13 13 13 13 13 13 13 13 13 13 13 12 12 12 12 12 12 12 12 11
16 16 15 15 15 15 15 14 14 14 14 14 14 14 14 14 14 14 14 14 13 13 13 13 13 13 13 13 12 13 13 13 13 13 12 12 12 12 12 12 12 12 11
16 16 16 15 15 15 15 15 15 15 15 14 14 14 14 14 14 14 14 14 14 13 13 13 13 13 13 13 12 12 12 12 12 12 12 12 12 12 12 12 11 11 11
16 16 16 16 15 15 15 15 15 15 15 14 14 14 14 14 14 14 14 14 14 13 13 13 13 13 12 12 11 11 11 12 12 12 12 12 12 11 11 11 11 11 11
16 16 16 16 15 15 15 15 15 15 15 14 14 14 14 14 14 14 14 14 13 13 13 13 13 12 12 11 11 11 11 12 11 11 11 11 11 11 10 10 10 10 10
16 16 16 16 15 15 15 15 15 15 14 14 14 14 14 14 13 13 13 13 13 13 13 13 12 12 11 11 11 10 10 10 10 10 10 10 10 10 10 9 9 9 9
16 15 15 15 15 15 15 15 14 14 14 14 14 13 13 13 13 13 13 13 12 12 12 12 11 11 11 10 10 10 9 9 9 9 9 9 9 9 9 9 9 9 8
15 15 15 15 15 14 14 14 14 14 13 13 13 13 12 12 12 12 12 12 12 11 11 11 11 10 10 10 10 9 9 9 9 9 8 8 8 8 8 8 8 8 8
Wind_Speed
13 18 21 19 17 16 15 15 14 13 12 11 11 12 12 13 13 14 14 14 15 16 17 18 18 18 18 17 16 16 15 15 14 14 13 13 12 12 11 9 8 11 11
17 20 21 19 18 16 16 15 14 13 11 11 11 11 12 12 13 14 14 14 15 15 16 16 17 17 16 16 15 15 14 13 13 11 8 10 11 11 10 11 11 10 9
18 20 20 19 18 17 16 15 14 12 11 10 10 11 12 12 13 14 14 14 15 15 15 15 15 15 15 14 13 13 12 11 10 6 3 8 10 10 10 10 10 9 9
19 19 19 20 18 17 17 15 13 12 11 10 10 11 11 12 13 13 14 14 15 15 14 14 14 13 13 12 12 11 11 10 7 3 7 10 10 11 11 10 10 11 10
18 18 19 20 19 18 17 15 13 12 11 9 10 11 11 12 13 14 14 14 14 14 13 13 12 12 11 11 11 11 10 8 4 5 9 8 9 11 11 10 10 10 10
17 17 19 19 19 18 16 15 13 12 11 9 10 11 11 11 13 13 13 13 13 12 12 12 11 11 11 10 10 9 8 5 2 8 8 8 9 9 10 10 10 10 10
16 17 20 19 19 18 16 14 13 12 11 10 10 11 11 12 12 12 12 12 11 11 10 10 10 10 10 9 9 8 7 4 5 6 6 7 9 9 9 9 9 9 10
15 16 19 19 19 17 15 14 12 12 10 9 9 11 11 11 12 11 10 10 9 9 9 8 8 8 8 8 7 6 5 3 4 5 5 6 8 7 8 8 8 8 8
15 15 16 18 17 17 15 13 12 11 9 9 10 11 11 12 10 9 9 8 7 7 7 6 6 6 6 6 5 5 4 2 2 3 3 4 5 5 6 6 6 7 7
12 13 14 15 15 15 14 13 12 11 10 10 10 11 12 11 9 8 7 6 5 5 4 4 4 4 4 4 4 3 1 3 1 1 1 3 3 3 4 4 5 5 6
12 11 12 13 13 13 12 12 12 11 10 10 10 10 8 6 6 6 5 5 4 3 2 2 2 2 2 3 2 1 3 3 2 2 2 2 2 3 2 2 2 3 3
14 12 10 11 12 12 10 10 9 8 9 8 7 8 6 4 3 3 5 3 2 2 2 2 2 3 5 3 3 4 4 4 5 4 3 2 5 6 5 3 3 2 2
13 11 10 10 11 11 9 8 7 7 7 6 6 6 5 4 4 4 4 4 5 5 4 4 5 4 4 4 4 5 5 6 5 5 5 5 8 9 8 7 6 5 4
11 11 10 10 10 10 9 8 7 6 6 6 6 6 5 4 4 4 4 4 4 4 4 5 4 4 5 6 6 6 6 6 7 6 6 7 10 11 11 10 9 8 7
10 11 11 10 10 9 8 7 6 6 6 6 6 6 6 5 5 5 5 5 5 5 5 5 6 5 6 6 7 7 8 8 9 8 8 9 12 13 14 13 12 11 11
10 10 10 10 10 10 8 7 7 6 6 6 6 7 7 6 5 5 5 6 6 6 6 6 7 6 6 6 7 8 9 9 9 10 10 9 13 15 16 16 15 15 14
9 9 10 9 9 10 9 8 7 7 7 6 6 7 8 8 7 6 6 6 7 7 7 7 8 7 7 7 8 9 9 10 10 11 11 10 10 14 17 18 18 17 17
9 9 9 8 9 10 8 8 7 7 7 6 6 7 8 8 8 7 6 7 8 7 7 6 6 7 7 8 8 8 8 8 11 12 12 11 11 11 13 17 19 19 19
9 9 9 9 9 9 8 7 7 6 6 6 6 6 7 8 9 8 7 8 8 7 7 6 7 7 8 8 8 8 8 9 10 11 12 13 12 12 12 11 16 19 20
7 8 9 9 9 8 7 6 5 5 5 5 5 5 6 6 7 8 8 9 8 6 7 7 8 8 8 8 7 8 9 10 9 10 11 11 10 11 11 11 10 12 17
7 8 8 8 7 7 6 6 5 5 5 4 4 5 5 6 6 7 6 7 7 7 8 9 8 8 7 6 5 7 9 11 10 9 8 8 8 8 8 9 9 9 9
7 7 7 7 6 6 5 4 3 3 3 3 2 2 2 4 5 5 6 6 6 6 8 8 7 6 5 5 5 6 7 8 7 6 6 5 6 5 5 6 7 7 8
7 7 6 6 5 5 5 4 3 2 2 3 3 2 1 2 3 3 5 5 5 6 7 7 7 8 7 6 6 6 6 6 5 4 5 4 4 4 4 4 5 6 7
7 6 6 6 5 4 4 5 6 5 5 3 2 1 0 1 2 2 3 4 5 5 6 7 7 7 8 8 6 7 9 7 6 5 4 4 4 5 5 4 5 5 5
8 7 6 6 5 4 4 4 4 4 3 2 2 2 1 0 2 3 3 3 4 4 5 6 6 6 6 8 7 6 7 7 8 7 8 6 5 4 3 4 4 4 5
8 8 7 7 6 5 4 3 3 4 3 3 3 2 2 1 1 3 4 3 3 3 4 5 5 6 6 7 6 6 6 6 5 6 7 7 6 4 3 2 3 4 5
Wind_Direction
161 157 150 151 146 141 135 127 120 113 108 105 105 104 100 95 89 84 81 79 78 80 83 86 87 87 86 85 84 82 79 75 71 68 66 65 65 66 61 47 39 66 56
155 156 149 152 148 142 135 126 119 113 109 108 109 108 104 98 93 87 84 83 82 84 85 86 87 86 85 85 83 81 79 75 72 67 71 82 69 61 58 50 40 54 53
152 154 153 150 147 141 132 126 121 116 113 113 114 111 109 103 96 90 88 86 86 86 87 87 86 85 84 83 82 80 77 74 70 65 64 76 76 62 58 54 53 53 50
152 155 156 146 144 138 133 128 124 120 118 118 117 115 111 106 100 94 91 88 87 87 88 87 86 85 83 81 80 80 78 73 64 25 66 65 70 63 55 53 52 49 46
152 154 147 144 142 138 135 132 128 124 123 122 120 120 113 108 104 98 95 92 91 91 91 89 87 84 81 80 80 80 77 73 67 62 66 62 66 58 52 48 48 43 42
152 152 146 144 141 139 137 134 130 128 128 126 124 123 118 110 106 102 100 97 95 94 92 89 85 83 80 80 80 80 76 62 69 68 63 57 59 55 50 46 43 40 40
152 152 148 144 141 140 138 136 134 133 132 132 130 127 123 115 111 108 105 103 100 98 95 91 86 82 78 78 80 80 75 42 59 68 58 54 53 49 47 42 38 35 33
152 152 149 145 143 141 139 138 137 136 136 136 134 130 123 120 117 113 111 109 107 104 99 94 90 86 83 81 82 83 73 22 70 63 54 56 51 44 41 38 33 29 27
154 154 153 153 148 143 141 140 139 137 137 135 128 125 120 119 121 120 117 115 112 108 104 99 96 91 87 85 86 86 80 3 9 54 43 49 44 35 37 32 27 26 26
158 160 158 158 156 154 150 143 139 135 131 130 125 123 124 126 128 129 134 118 112 109 107 104 100 94 90 90 94 103 126 256 342 18 4 51 25 12 30 27 22 21 22
164 165 163 161 159 157 152 147 145 140 134 137 136 134 146 155 154 156 127 122 124 123 123 122 122 117 127 134 133 173 242 276 296 297 300 43 311 312 325 345 355 1 10
172 169 167 166 162 159 153 157 158 157 159 167 159 162 174 171 170 165 139 161 167 173 186 186 184 200 238 232 193 223 260 275 278 270 268 249 274 277 275 268 270 291 310
175 172 173 171 168 165 162 165 166 168 170 175 177 180 186 190 191 205 205 196 210 216 225 202 226 240 257 269 275 266 276 278 273 272 257 233 260 265 265 258 251 250 255
181 181 180 177 173 175 173 174 178 181 184 185 189 195 201 209 217 221 230 229 232 231 241 250 259 256 259 260 264 269 265 263 267 270 266 240 251 257 260 259 251 244 244
191 190 188 185 185 182 182 183 190 195 198 198 199 205 213 220 225 226 235 235 242 248 247 253 258 262 265 268 265 267 269 266 266 265 263 242 245 250 254 257 255 248 242
200 197 194 193 193 190 192 195 200 204 206 211 210 216 220 229 234 237 243 243 247 247 253 259 263 268 269 268 270 268 270 271 267 266 267 257 241 244 249 252 254 251 247
204 201 198 197 198 198 201 204 208 210 211 215 219 223 224 231 238 241 249 249 250 250 254 259 265 266 269 269 268 268 269 269 269 269 265 264 258 242 241 246 249 250 249
205 203 200 198 203 204 207 208 212 215 216 221 225 228 229 233 238 244 247 251 254 253 251 253 260 261 262 264 270 273 270 268 269 270 268 261 260 260 246 238 244 248 249
208 204 201 202 206 206 208 211 216 219 220 226 227 231 235 238 240 242 249 255 255 251 250 251 255 259 267 268 271 275 275 272 271 268 266 264 260 259 263 251 240 246 250
204 204 201 201 206 205 205 208 209 219 224 226 228 234 239 241 243 245 250 256 257 251 252 250 254 255 263 273 277 276 274 271 267 266 268 268 264 261 263 268 260 251 245
194 197 198 200 199 199 197 204 211 218 219 220 226 239 246 251 251 249 254 259 255 252 256 258 257 258 258 261 268 275 271 263 261 261 263 269 270 268 267 267 267 270 263
193 191 193 196 197 201 205 207 214 215 219 221 212 227 267 271 268 262 261 263 260 260 260 259 253 255 255 240 250 278 284 276 248 245 254 262 274 275 274 275 274 273 276
191 184 181 182 183 186 187 178 171 180 189 200 209 215 306 308 295 280 276 275 271 265 265 264 256 250 257 250 237 253 274 279 296 246 245 258 270 277 284 294 294 293 290
182 170 170 167 164 166 180 195 202 211 219 215 211 199 171 14 347 325 302 290 281 274 270 271 266 261 260 260 248 241 253 273 276 281 252 249 267 284 294 301 304 306 308
172 164 160 155 148 147 163 181 195 204 204 187 188 196 198 102 26 3 338 316 301 291 284 282 277 267 259 260 259 250 248 250 249 257 272 270 264 272 298 312 321 330 334
168 161 158 152 141 137 139 147 166 179 184 191 203 213 217 216 20 13 354 338 324 314 303 296 286 275 267 265 267 262 259 255 251 251 263 271 274 275 293 338 354 354 353
Height
1548 1551 1553 1556 1558 1560 1562 1563 1563 1563 1563 1563 1563 1563 1563 1563 1563 1563 1562 1562 1562 1562 1562 1563 1563 1563 1564 1564 1564 1563 1563 1563 1562 1562 1561 1561 1560 1560 1559 1558 1558 1558 1556
1547 1551 1553 1557 1559 1561 1563 1563 1564 1564 1564 1564 1564 1565 1565 1565 1565 1564 1564 1564 1563 1564 1564 1564 1565 1565 1565 1565 1565 1565 1565 1565 1564 1564 1564 1564 1563 1562 1562 1561 1560 1560 1558
1548 1551 1554 1557 1560 1562 1563 1564 1565 1565 1566 1566 1566 1566 1567 1567 1567 1566 1566 1566 1565 1565 1566 1566 1567 1567 1567 1567 1567 1567 1567 1567 1566 1566 1566 1567 1566 1565 1564 1563 1562 1562 1561
1549 1552 1555 1558 1561 1563 1564 1565 1566 1566 1567 1567 1567 1568 1568 1569 1569 1569 1568 1568 1568 1568 1568 1568 1568 1569 1569 1569 1569 1569 1569 1569 1569 1568 1570 1569 1568 1567 1566 1565 1565 1563 1562
1550 1553 1556 1558 1561 1563 1565 1566 1567 1567 1568 1568 1569 1570 1570 1571 1571 1571 1571 1570 1570 1570 1570 1570 1571 1571 1571 1571 1571 1571 1571 1571 1571 1571 1571 1570 1570 1569 1568 1567 1566 1565 1564
1550 1554 1556 1559 1562 1564 1566 1567 1568 1569 1569 1570 1570 1571 1572 1573 1573 1573 1573 1573 1573 1573 1573 1573 1573 1573 1573 1573 1573 1573 1573 1573 1573 1573 1573 1572 1571 1570 1569 1568 1567 1566 1564
1551 1554 1557 1560 1562 1565 1566 1568 1569 1570 1570 1571 1572 1573 1573 1574 1574 1575 1575 1575 1575 1575 1575 1575 1575 1575 1575 1575 1575 1575 1574 1574 1575 1574 1574 1573 1572 1571 1570 1568 1567 1566 1564
1552 1555 1557 1560 1563 1565 1567 1568 1569 1570 1571 1572 1573 1574 1575 1575 1576 1576 1576 1576 1576 1576 1577 1577 1577 1577 1577 1577 1576 1576 1576 1575 1576 1576 1575 1574 1573 1571 1570 1569 1568 1566 1564
1553 1556 1558 1561 1563 1565 1567 1569 1570 1571 1572 1573 1574 1575 1575 1576 1577 1577 1577 1577 1577 1577 1578 1578 1578 1578 1578 1577 1577 1577 1577 1576 1577 1576 1575 1575 1573 1572 1571 1569 1568 1566 1565
1553 1556 1559 1561 1563 1565 1567 1568 1570 1571 1572 1573 1574 1575 1576 1577 1577 1577 1578 1578 1578 1578 1578 1578 1578 1578 1578 1578 1578 1577 1577 1577 1578 1576 1576 1575 1573 1572 1571 1569 1568 1566 1565
1554 1556 1559 1561 1564 1566 1567 1568 1570 1571 1572 1573 1574 1575 1576 1577 1578 1578 1578 1578 1578 1578 1578 1578 1578 1578 1578 1577 1577 1577 1577 1577 1577 1576 1575 1574 1573 1572 1571 1569 1568 1566 1565
1553 1556 1558 1561 1563 1565 1567 1568 1570 1571 1572 1573 1574 1575 1576 1577 1577 1577 1577 1578 1578 1578 1578 1578 1578 1577 1577 1577 1577 1576 1577 1576 1576 1575 1574 1573 1572 1571 1570 1569 1568 1566 1565
1554 1556 1558 1560 1563 1565 1566 1568 1569 1570 1571 1573 1574 1574 1575 1576 1576 1577 1577 1577 1577 1577 1578 1577 1577 1577 1577 1576 1576 1576 1575 1575 1574 1574 1573 1571 1571 1570 1569 1568 1567 1565 1564
1553 1555 1558 1560 1562 1564 1566 1567 1569 1570 1571 1572 1572 1573 1574 1575 1575 1576 1576 1576 1577 1577 1577 1576 1576 1576 1575 1575 1574 1574 1573 1573 1572 1571 1570 1569 1569 1568 1567 1566 1565 1564 1563
1553 1555 1557 1559 1561 1563 1565 1566 1567 1569 1570 1571 1571 1572 1573 1574 1574 1575 1575 1575 1575 1575 1575 1575 1575 1575 1574 1574 1573 1572 1572 1571 1570 1569 1568 1566 1566 1565 1564 1564 1563 1562 1561
1552 1554 1555 1557 1559 1561 1563 1565 1566 1567 1568 1569 1570 1571 1571 1572 1573 1573 1573 1574 1574 1574 1574 1574 1574 1573 1573 1572 1571 1570 1569 1569 1567 1566 1565 1564 1563 1562 1562 1561 1560 1559 1559
1550 1552 1554 1556 1558 1560 1562 1563 1565 1566 1567 1568 1568 1569 1570 1570 1571 1571 1572 1572 1572 1572 1571 1571 1571 1571 1570 1569 1569 1568 1567 1566 1565 1564 1562 1561 1560 1559 1558 1557 1557 1556 1556
1549 1551 1553 1554 1556 1558 1560 1562 1563 1564 1565 1566 1566 1567 1568 1568 1569 1569 1569 1570 1570 1569 1569 1569 1568 1568 1567 1566 1566 1565 1563 1562 1561 1560 1559 1557 1556 1555 1554 1553 1553 1552 1552
1547 1549 1551 1553 1555 1557 1558 1560 1561 1562 1563 1564 1564 1565 1565 1566 1566 1566 1566 1567 1567 1566 1566 1565 1565 1564 1564 1563 1562 1560 1559 1558 1557 1555 1554 1553 1552 1551 1550 1549 1548 1548 1547
1544 1546 1549 1551 1553 1555 1556 1557 1558 1559 1560 1561 1561 1562 1562 1563 1563 1563 1563 1563 1563 1562 1562 1562 1561 1560 1559 1559 1557 1556 1554 1553 1552 1551 1550 1549 1547 1546 1545 1544 1543 1542 1542
1541 1544 1546 1548 1550 1552 1553 1554 1555 1556 1557 1558 1558 1559 1559 1559 1559 1559 1559 1559 1559 1558 1558 1557 1556 1555 1555 1554 1552 1550 1549 1548 1546 1545 1545 1544 1543 1542 1540 1539 1539 1538 1537
1538 1541 1543 1546 1547 1549 1550 1552 1553 1553 1554 1554 1554 1555 1555 1555 1555 1555 1555 1554 1554 1553 1553 1552 1551 1550 1550 1549 1548 1547 1545 1545 1542 1540 1540 1539 1539 1538 1537 1535 1534 1533 1532
1535 1538 1540 1542 1544 1546 1547 1548 1549 1550 1550 1550 1551 1550 1551 1550 1550 1550 1550 1549 1549 1548 1547 1547 1546 1545 1545 1544 1544 1544 1543 1540 1539 1537 1536 1535 1535 1534 1533 1532 1530 1529 1528
1531 1534 1536 1539 1540 1542 1543 1545 1545 1546 1546 1546 1546 1546 1546 1546 1545 1545 1544 1544 1543 1542 1542 1541 1540 1540 1539 1538 1538 1537 1538 1537 1536 1534 1533 1532 1531 1530 1529 1528 1526 1525 1523
1528 1530 1532 1534 1536 1538 1539 1541 1541 1542 1542 1542 1542 1541 1541 1541 1540 1540 1539 1538 1538 1537 1536 1535 1535 1534 1533 1533 1532 1532 1532 1531 1531 1530 1528 1528 1527 1526 1525 1523 1522 1521 1519
1523 1525 1528 1530 1532 1534 1535 1536 1537 1538 1538 1538 1537 1537 1536 1536 1535 1534 1534 1533 1532 1531 1530 1530 1529 1528 1528 1527 1527 1527 1526 1526 1526 1525 1524 1523 1522 1522 1520 1519 1518 1516 1515